Погода в Михайловке

Россия / Саратовская область     51°29′39″N   45°43′13″E
темп.,
°C
ветер,
м/с
пор.,
м/с
влажн.,
%
обл.,
%
осадки,
мм/ч
давл.,
гПа
погр.,
м
9 мая, вс
вс901:00+14юв485893 0.0 1012165
04:00+13ююв41261100 0.0 1011312
07:00+13ююв41180100 0.5 1010279
10:00+14ю51172100 0.7 1010393
13:00+18ю81149100 0.0 10101116
16:00+19ю71043100 0.0 10101582
19:00+15зсз4668100 0.0 1011226
22:00+9ссз71081100 0.0 1013242
10 мая, пн
пн1001:00+9с61282100 0.0 1012299
04:00+9с71186100 0.6 1013268
07:00+10с61286100 0.2 1013288
10:00+15ссв6969100 0.2 1013411
13:00+20всв5850100 0.0 10141279
16:00+20всв5950100 0.0 1013413
19:00+20всв91648100 0.0 1013583
22:00+14юз2684100 0.9 1018194
11 мая, вт
вт1101:00+14ссв4784100 0.6 1017150
04:00+13в41189100 0.8 1018578
07:00+9ю4794100 0.6 1021293
10:00+11ююв337897 0.6 1023315
13:00+16в346258 0.0 1023754
16:00+14ююз4573100 0.3 1023296
19:00+11с2291100 2.5 102499
22:00+12всв51195100 6.4 1024468
12 мая, ср
ср1201:00+13св51297100 1.8 1022432
04:00+14всв61487100 2.5 1021513
07:00+14вюв51378100 0.1 1022478
10:00+14в497896 0.1 1023391
13:00+20вюв7105243 0.0 1023907
16:00+19вюв61162100 0.0 1023769
19:00+17всв61367100 0.0 1023407
22:00+17всв61560100 0.1 1022459
13 мая, чт
чт1301:00+15в51462100 0.0 1022436
04:00+14в51459100 0.0 1021471
07:00+13в3993100 1.6 1022282
10:00+15в697793 1.6 1021368
13:00+19вюв685816 0.0 1022560
16:00+21юв610565 0.0 1022991
19:00+21в4106220 0.0 1020279
22:00+17вюв616620 0.0 1021417